Regional Weather Roundup
Issued by NWS

Home | Current Version | Previous Version | Graphics & Text | Print | Product List | Glossary On
Versions: 1 2 3 4 5 6 7 8 9 10 11 12 13 14 15 16 17 18 19 20 21 22 23 24 25 26 27 28 29 30 31 32 33 34 35 36 37 38 39 40 41 42 43 44 45 46 47 48 49 50
000
ASUS45 KSLC 021410
RWRUT

UTAH REGIONAL WEATHER ROUNDUP
NATIONAL WEATHER SERVICE SALT LAKE CITY UT
800 AM MDT SUN AUG 02 2015

UTZ001>011-023>025-021500-

NORTHERN UTAH

CITY           SKY/WX    TMP DP  RH WIND       PRES   REMARKS
BRIGHAM CITY   SUNNY     64  37  37 N6        30.01S
HILL AFB       MOSUNNY   66  37  34 E20       30.04S
LOGAN          SUNNY     59  42  53 CALM      30.06S
OGDEN          MOSUNNY   68  39  34 S7        30.01S
PROVO AIRPORT  MOSUNNY   68  43  40 CALM      30.05S
SALT LAKE CITY PTSUNNY   72  44  36 SE7       30.00S
VERNAL         SUNNY     71  39  31 NW3       30.13R
WENDOVER       CLOUDY    75  37  25 SE12      30.01R
HEBER CITY     SUNNY     57  43  58 CALM      30.15S
WEST JORDAN    SUNNY     72  45  37 CALM      30.04R

$$

UTZ012>022-026-027-021500-

SOUTHERN/CENTRAL UTAH

CITY           SKY/WX    TMP DP  RH WIND       PRES   REMARKS
BLANDING       CLOUDY    60  59  96 NE5       30.29R
BRYCE CANYON   PTSUNNY   57  49  74 CALM      30.28R
CEDAR CITY     CLOUDY    70  51  51 S14       30.12R
DELTA          CLOUDY    69  33  26 NE5       30.04S
HANKSVILLE     PTSUNNY   73  52  46 NE3       30.08R
MILFORD        CLOUDY    68  50  52 S8        30.05S
MOAB/CYNLANDS  SUNNY     72  53  51 SE5       30.08R
PRICE          MOSUNNY   73  49  42 E7        30.17R
ST GEORGE      PTSUNNY   75  57  53 CALM      30.00S THUNDER
KANAB          CLOUDY    64  57  77 CALM      30.19R

$$

REGIONAL REPORTS     COLORADO/ARIZONA

CITY           SKY/WX    TMP DP  RH WIND       PRES   REMARKS
CRAIG, CO      SUNNY     58  45  62 CALM      30.22S
GRAND JUNCTION CLOUDY    71  53  52 SE10      30.12R
RIFLE          PTSUNNY   65  51  60 CALM      30.18R
MONTROSE       CLOUDY    64  56  75 SE3       30.22R
CORTEZ         CLOUDY    61  60  97 NE6       30.22S
PAGE, AZ       LGT RAIN  71  61  70 S6        30.06R
GRAND CANYON   CLOUDY    63  57  81 CALM      30.23R
KINGMAN        SUNNY     73  55  53 CALM      30.02R
FLAGSTAFF      SUNNY     61  55  81 CALM      30.27R

$$

REGIONAL REPORTS    NEVADA/IDAHO/WYOMING

CITY           SKY/WX    TMP DP  RH WIND       PRES   REMARKS
LAS VEGAS, NV  MOSUNNY   79  54  41 CALM      29.89R
ELY            CLOUDY    67  42  40 NW8       30.18F
ELKO           PTSUNNY   65  43  44 CALM      30.13S
POCATELLO, ID  SUNNY     57  45  64 NW7       30.06R
BURLEY         SUNNY     62  46  55 CALM      30.01R
EVANSTON, WY   SUNNY     64  32  30 NE3       30.24S
ROCK SPRINGS   SUNNY     63  28  26 CALM      30.22S
KEMMERER       SUNNY     55  32  41 N12       30.26S

$$



USA.gov is the U.S. government's official web portal to all federal, state and local government web resources and services.